This demonstration page uses our WeatherBlox Daily Observations layout. Learn more.

Left ArrowRight Arrow

Hourly Observations for November 14, 2018

Temp ( °F °C ) Dew Point ( °F °C ) Humidity (%) Winds ( mph kmh ) Pressure ( in mb ) Visibility ( mi km ) Precip ( " mm )
12:57 am 00:57 Clear 30 -1.1 21 -6.1 69 69 SW 8 13 30.42 1030 10 16 0.00 0.00
1:57 am 01:57 Clear 27 -2.8 20 -6.7 75 75 SSW 6 9 30.41 1030 10 16 0.00 0.00
2:57 am 02:57 Clear 27 -2.8 20 -6.7 75 75 SSW 7 11 30.40 1030 10 16 0.00 0.00
3:57 am 03:57 Clear 25 -3.9 19 -7.2 78 78 SSW 3 6 30.40 1029 10 16 0.00 0.00
4:57 am 04:57 Clear 26 -3.3 19 -7.2 75 75 SSW 5 7 30.40 1029 10 16 0.00 0.00
5:57 am 05:57 Clear 25 -3.9 19 -7.2 78 78 SSW 7 11 30.41 1030 10 16 0.00 0.00
6:57 am 06:57 Clear 25 -3.9 20 -6.7 81 81 SW 7 11 30.41 1030 10 16 0.00 0.00
7:57 am 07:57 Sunny 26 -3.3 20 -6.7 78 78 SW 9 15 30.42 1030 10 16 0.00 0.00
8:57 am 08:57 Sunny 32 0 23 -5 69 69 SW 8 13 30.39 1029 10 16 0.00 0.00
9:57 am 09:57 Sunny 38 3.3 24 -4.4 57 57 WSW 8 13 30.38 1029 10 16 0.00 0.00
10:09 am 10:09 Hazy 39 4 25 -4 56 56 SW 8 13 30.39 1029 3 4 0.00 0.00
10:19 am 10:19 Sunny 39 4 25 -4 56 56 SW 10 17 30.39 1029 10 16 0.02 0.51
10:57 am 10:57 Sunny 45 7.2 27 -2.8 49 49 SSW 8 13 30.37 1028 10 16 0.02 0.51
11:57 am 11:57 Sunny 49 9.4 29 -1.7 46 46 SSW 14 22 30.34 1027 10 16 0.00 0.00
12:57 pm 12:57 Sunny 52 11.1 29 -1.7 41 41 S 16 26 30.29 1026 10 16 0.00 0.00
1:57 pm 13:57 Sunny 53 11.7 29 -1.7 40 40 S 13 20 30.26 1025 10 16 0.00 0.00
2:57 pm 14:57 Sunny 54 12.2 29 -1.7 38 38 S 12 19 30.23 1024 10 16 0.00 0.00
3:57 pm 15:57 Sunny 53 11.7 30 -1.1 41 41 S 12 19 30.21 1023 10 16 0.00 0.00
4:57 pm 16:57 Sunny 47 8.3 30 -1.1 52 52 S 10 17 30.20 1023 10 16 0.00 0.00
5:57 pm 17:57 Clear 41 5 28 -2.2 60 60 S 9 15 30.21 1023 10 16 0.00 0.00
6:57 pm 18:57 Clear 40 4.4 28 -2.2 63 63 S 15 24 30.20 1023 10 16 0.00 0.00
7:57 pm 19:57 Clear 37 2.8 28 -2.2 70 70 S 13 20 30.19 1022 10 16 0.00 0.00
8:57 pm 20:57 Clear 36 2.2 29 -1.7 76 76 S 13 20 30.17 1022 10 16 0.00 0.00
9:57 pm 21:57 Clear 34 1.1 29 -1.7 82 82 S 12 19 30.15 1021 10 16 0.00 0.00
10:57 pm 22:57 Clear 32 0 28 -2.2 85 85 S 9 15 30.13 1020 10 16 0.00 0.00
11:57 pm 23:57 Clear 31 -0.6 28 -2.2 89 89 S 7 11 30.10 1019 10 16 0.00 0.00

Powered by AerisWeather